User: anonymous   Login
Location: Trois-Rivi�res
(46.3500°N, 72.5500°W)
Time: 16:28:03
(UTC-04:00)
Language:

Vanguard 2 Rocket - Orbit

View from above orbital plane
View from above orbital plane
View from above satellite
View from above satellite

Ground track
Ground track

The orbit data is extracted from the following two-line orbital elements,

1    12U 59001B   17290.85009693 +.00000054 +00000-0 +30357-4 0  9998
2    12 032.8988 156.9960 1666012 357.6930 001.6668 11.44137885168435
Epoch (UTC): 17 October 2017 20:24:08
Eccentricity: 0.1666012
inclination: 32.8988°
perigee height: 555 km
apogee height: 3327 km
right ascension of ascending node: 156.9960°
argument of perigee: 357.6930°
revolutions per day: 11.44137885
mean anomaly at epoch: 1.6668°
orbit number at epoch: 16843

The dashed part of the orbit path shows where the satellite is in the earth's shadow,  

DLR